QPF
0.03 0.05 0.08 0.09 0.07 0.03 0.01 0.00 0.00 0.01 0.01 0.03 0.04 0.05 0.06 0.05 0.03 0.02 0.02 0.03 0.11 0.25 0.33 0.35 0.32 0.23 0.19 0.17 0.11 0.07 0.04 0.02 0.01 0.00 0.00 0.00 0.00 0.00 0.00 0.00 0.00 0.00 0.00
0.01 0.02 0.04 0.06 0.07 0.05 0.02 0.01 0.02 0.02 0.03 0.05 0.09 0.11 0.11 0.09 0.08 0.06 0.04 0.04 0.09 0.19 0.25 0.32 0.32 0.28 0.24 0.25 0.21 0.17 0.14 0.08 0.03 0.01 0.01 0.01 0.01 0.00 0.00 0.00 0.00 0.00 0.00
0.00 0.01 0.01 0.03 0.04 0.04 0.03 0.02 0.02 0.03 0.07 0.14 0.21 0.23 0.18 0.17 0.14 0.12 0.10 0.10 0.09 0.11 0.13 0.18 0.20 0.17 0.16 0.19 0.20 0.18 0.19 0.17 0.10 0.05 0.04 0.05 0.06 0.03 0.00 0.00 0.00 0.00 0.00
0.00 0.00 0.01 0.01 0.02 0.03 0.02 0.02 0.03 0.07 0.18 0.30 0.38 0.40 0.39 0.32 0.25 0.19 0.17 0.14 0.12 0.10 0.09 0.09 0.10 0.09 0.09 0.11 0.10 0.07 0.10 0.12 0.10 0.07 0.06 0.05 0.06 0.06 0.03 0.01 0.00 0.00 0.00
0.00 0.00 0.00 0.01 0.01 0.01 0.02 0.03 0.08 0.18 0.35 0.51 0.59 0.60 0.49 0.38 0.27 0.19 0.16 0.13 0.10 0.08 0.08 0.08 0.07 0.05 0.05 0.04 0.03 0.02 0.03 0.04 0.06 0.07 0.07 0.06 0.06 0.06 0.05 0.03 0.01 0.00 0.00
0.01 0.01 0.01 0.02 0.02 0.02 0.03 0.08 0.19 0.33 0.50 0.67 0.71 0.67 0.54 0.41 0.30 0.20 0.13 0.09 0.07 0.06 0.06 0.05 0.03 0.02 0.02 0.01 0.01 0.01 0.01 0.01 0.02 0.04 0.05 0.07 0.08 0.07 0.07 0.06 0.03 0.02 0.00
0.02 0.01 0.02 0.03 0.05 0.08 0.12 0.20 0.30 0.43 0.59 0.71 0.71 0.65 0.54 0.41 0.30 0.21 0.14 0.09 0.06 0.06 0.05 0.04 0.03 0.01 0.01 0.00 0.00 0.00 0.01 0.01 0.02 0.03 0.06 0.09 0.11 0.11 0.12 0.10 0.08 0.05 0.02
0.02 0.03 0.04 0.04 0.07 0.12 0.17 0.22 0.33 0.49 0.61 0.67 0.65 0.56 0.47 0.39 0.29 0.20 0.14 0.09 0.06 0.05 0.04 0.03 0.02 0.01 0.00 0.00 0.00 0.00 0.00 0.01 0.01 0.02 0.05 0.07 0.10 0.11 0.12 0.11 0.09 0.07 0.05
0.02 0.03 0.05 0.06 0.08 0.11 0.19 0.26 0.34 0.47 0.55 0.55 0.52 0.47 0.42 0.36 0.27 0.19 0.13 0.08 0.04 0.02 0.01 0.01 0.01 0.00 0.00 0.00 0.00 0.00 0.00 0.00 0.01 0.01 0.03 0.04 0.07 0.09 0.11 0.12 0.12 0.10 0.08
0.04 0.06 0.09 0.08 0.09 0.12 0.19 0.29 0.34 0.38 0.45 0.49 0.48 0.45 0.41 0.35 0.27 0.19 0.13 0.08 0.03 0.01 0.01 0.00 0.00 0.00 0.00 0.00 0.00 0.00 0.00 0.00 0.01 0.01 0.02 0.03 0.05 0.07 0.10 0.13 0.15 0.13 0.09
0.13 0.11 0.12 0.11 0.12 0.14 0.18 0.25 0.31 0.33 0.35 0.39 0.39 0.38 0.34 0.28 0.22 0.17 0.12 0.07 0.03 0.01 0.00 0.00 0.00 0.00 0.00 0.00 0.00 0.00 0.00 0.00 0.00 0.01 0.01 0.03 0.05 0.08 0.10 0.12 0.13 0.11 0.09
0.22 0.18 0.14 0.12 0.12 0.15 0.18 0.20 0.22 0.24 0.27 0.32 0.34 0.33 0.27 0.21 0.19 0.15 0.09 0.05 0.03 0.01 0.00 0.00 0.00 0.00 0.00 0.00 0.00 0.00 0.00 0.00 0.00 0.00 0.01 0.03 0.05 0.07 0.09 0.11 0.11 0.10 0.07
0.33 0.31 0.25 0.20 0.15 0.15 0.17 0.17 0.19 0.20 0.22 0.26 0.26 0.23 0.22 0.19 0.17 0.12 0.07 0.04 0.02 0.01 0.01 0.00 0.00 0.00 0.00 0.00 0.00 0.00 0.00 0.00 0.00 0.00 0.00 0.01 0.03 0.05 0.09 0.10 0.12 0.12 0.12
0.27 0.26 0.26 0.22 0.19 0.17 0.16 0.16 0.20 0.21 0.22 0.23 0.21 0.18 0.15 0.15 0.13 0.08 0.05 0.04 0.03 0.03 0.02 0.02 0.01 0.01 0.01 0.01 0.00 0.00 0.00 0.00 0.00 0.00 0.00 0.00 0.01 0.02 0.05 0.07 0.10 0.13 0.17
0.11 0.12 0.12 0.13 0.13 0.11 0.10 0.11 0.14 0.17 0.19 0.20 0.19 0.15 0.12 0.12 0.09 0.06 0.05 0.05 0.04 0.04 0.03 0.03 0.03 0.03 0.03 0.03 0.02 0.02 0.01 0.01 0.01 0.00 0.00 0.00 0.00 0.00 0.01 0.02 0.05 0.09 0.14
0.05 0.04 0.04 0.04 0.04 0.03 0.03 0.04 0.06 0.09 0.11 0.10 0.10 0.09 0.07 0.07 0.06 0.05 0.04 0.04 0.04 0.03 0.04 0.05 0.06 0.06 0.05 0.08 0.05 0.03 0.02 0.01 0.01 0.02 0.00 0.00 0.00 0.00 0.01 0.01 0.01 0.03 0.06
0.00 0.01 0.01 0.01 0.00 0.00 0.00 0.00 0.01 0.02 0.03 0.03 0.03 0.03 0.03 0.02 0.02 0.02 0.02 0.02 0.03 0.03 0.03 0.04 0.05 0.06 0.07 0.07 0.03 0.03 0.04 0.05 0.05 0.04 0.02 0.01 0.00 0.00 0.01 0.00 0.00 0.00 0.00
0.00 0.00 0.00 0.00 0.00 0.00 0.00 0.00 0.00 0.00 0.00 0.00 0.00 0.00 0.00 0.00 0.00 0.00 0.00 0.01 0.01 0.01 0.01 0.02 0.02 0.03 0.04 0.04 0.03 0.03 0.06 0.11 0.10 0.06 0.03 0.03 0.01 0.01 0.00 0.00 0.00 0.01 0.00
0.00 0.00 0.00 0.00 0.00 0.00 0.00 0.00 0.00 0.00 0.00 0.00 0.00 0.00 0.00 0.00 0.00 0.00 0.00 0.00 0.00 0.00 0.00 0.00 0.01 0.01 0.01 0.02 0.02 0.03 0.08 0.13 0.15 0.09 0.05 0.04 0.03 0.03 0.01 0.00 0.02 0.02 0.01
0.00 0.00 0.00 0.00 0.00 0.00 0.00 0.00 0.00 0.00 0.00 0.00 0.00 0.00 0.00 0.00 0.00 0.00 0.00 0.00 0.00 0.00 0.00 0.00 0.00 0.00 0.00 0.01 0.01 0.02 0.06 0.11 0.14 0.10 0.07 0.09 0.08 0.06 0.02 0.01 0.02 0.04 0.03
0.00 0.00 0.00 0.00 0.00 0.00 0.00 0.00 0.00 0.00 0.00 0.00 0.00 0.00 0.00 0.00 0.00 0.00 0.00 0.00 0.00 0.00 0.00 0.00 0.00 0.00 0.00 0.00 0.01 0.02 0.03 0.06 0.09 0.10 0.09 0.06 0.08 0.06 0.04 0.03 0.02 0.04 0.02
0.00 0.00 0.00 0.00 0.00 0.00 0.00 0.00 0.00 0.00 0.00 0.00 0.00 0.00 0.00 0.00 0.00 0.00 0.00 0.00 0.00 0.00 0.00 0.00 0.00 0.00 0.00 0.00 0.00 0.01 0.01 0.02 0.05 0.05 0.05 0.04 0.06 0.04 0.03 0.02 0.02 0.04 0.02
0.00 0.00 0.00 0.00 0.00 0.00 0.00 0.00 0.00 0.00 0.00 0.00 0.00 0.00 0.00 0.00 0.00 0.00 0.00 0.00 0.00 0.00 0.00 0.00 0.00 0.00 0.00 0.00 0.00 0.00 0.01 0.01 0.01 0.01 0.02 0.02 0.03 0.03 0.03 0.02 0.03 0.03 0.02
0.00 0.00 0.00 0.00 0.00 0.00 0.00 0.00 0.00 0.00 0.00 0.00 0.00 0.00 0.00 0.00 0.00 0.00 0.00 0.00 0.00 0.00 0.00 0.00 0.01 0.00 0.01 0.00 0.00 0.00 0.00 0.01 0.01 0.01 0.01 0.01 0.02 0.02 0.03 0.03 0.03 0.03 0.03
0.00 0.00 0.00 0.00 0.00 0.00 0.00 0.00 0.00 0.00 0.00 0.00 0.00 0.00 0.00 0.00 0.00 0.00 0.00 0.00 0.00 0.00 0.00 0.00 0.01 0.01 0.00 0.00 0.00 0.00 0.01 0.01 0.01 0.01 0.02 0.02 0.03 0.03 0.03 0.02 0.02 0.02 0.02
0.00 0.00 0.00 0.00 0.00 0.00 0.00 0.00 0.00 0.00 0.00 0.00 0.00 0.00 0.00 0.00 0.00 0.00 0.00 0.00 0.00 0.00 0.00 0.00 0.00 0.00 0.00 0.00 0.00 0.01 0.01 0.01 0.01 0.04 0.05 0.05 0.04 0.03 0.03 0.02 0.01 0.01 0.01
MSLP
1011.59 1011.05 1010.54 1010.06 1009.64 1009.31 1009.09 1008.99 1009.05 1009.26 1009.61 1010.07 1010.60 1011.15 1011.68 1012.15 1012.54 1012.83 1013.06 1013.23 1013.39 1013.55 1013.75 1014.00 1014.28 1014.60 1014.93 1015.26 1015.57 1015.84 1016.08 1016.27 1016.41 1016.51 1016.55 1016.55 1016.51 1016.44 1016.35 1016.26 1016.18 1016.12 1016.10
1011.98 1011.36 1010.75 1010.15 1009.61 1009.14 1008.78 1008.57 1008.54 1008.70 1009.02 1009.48 1010.05 1010.66 1011.26 1011.81 1012.26 1012.62 1012.89 1013.09 1013.25 1013.40 1013.58 1013.80 1014.06 1014.35 1014.67 1014.99 1015.29 1015.58 1015.83 1016.05 1016.22 1016.34 1016.42 1016.46 1016.46 1016.42 1016.36 1016.29 1016.22 1016.16 1016.12
1012.26 1011.58 1010.89 1010.21 1009.56 1008.99 1008.54 1008.25 1008.15 1008.26 1008.56 1009.03 1009.63 1010.28 1010.94 1011.54 1012.05 1012.45 1012.74 1012.96 1013.12 1013.26 1013.42 1013.61 1013.83 1014.09 1014.38 1014.68 1014.97 1015.25 1015.50 1015.72 1015.90 1016.06 1016.18 1016.26 1016.32 1016.34 1016.33 1016.31 1016.27 1016.23 1016.20
1012.45 1011.74 1011.00 1010.26 1009.56 1008.94 1008.43 1008.10 1007.96 1008.05 1008.35 1008.82 1009.43 1010.10 1010.78 1011.41 1011.94 1012.36 1012.67 1012.88 1013.03 1013.15 1013.28 1013.43 1013.63 1013.85 1014.10 1014.37 1014.64 1014.89 1015.13 1015.35 1015.54 1015.71 1015.86 1015.99 1016.10 1016.19 1016.26 1016.30 1016.33 1016.33 1016.32
1012.61 1011.89 1011.14 1010.39 1009.68 1009.05 1008.53 1008.19 1008.05 1008.14 1008.43 1008.90 1009.50 1010.17 1010.84 1011.46 1011.97 1012.37 1012.66 1012.85 1012.97 1013.07 1013.17 1013.29 1013.45 1013.65 1013.87 1014.11 1014.34 1014.57 1014.79 1014.99 1015.17 1015.35 1015.52 1015.69 1015.85 1016.01 1016.14 1016.26 1016.35 1016.40 1016.42
1012.81 1012.10 1011.38 1010.66 1009.98 1009.37 1008.89 1008.57 1008.45 1008.54 1008.82 1009.27 1009.85 1010.47 1011.10 1011.66 1012.12 1012.47 1012.71 1012.85 1012.94 1013.00 1013.07 1013.17 1013.31 1013.49 1013.69 1013.90 1014.12 1014.32 1014.51 1014.68 1014.85 1015.02 1015.19 1015.38 1015.58 1015.78 1015.98 1016.16 1016.30 1016.41 1016.47
1013.11 1012.44 1011.76 1011.10 1010.48 1009.93 1009.50 1009.22 1009.12 1009.21 1009.48 1009.89 1010.40 1010.95 1011.49 1011.97 1012.34 1012.61 1012.78 1012.86 1012.90 1012.93 1012.98 1013.07 1013.19 1013.36 1013.56 1013.76 1013.96 1014.14 1014.30 1014.45 1014.59 1014.74 1014.90 1015.09 1015.30 1015.53 1015.76 1015.98 1016.18 1016.33 1016.42
1013.53 1012.92 1012.30 1011.71 1011.16 1010.69 1010.32 1010.07 1009.99 1010.07 1010.29 1010.64 1011.06 1011.51 1011.93 1012.29 1012.56 1012.73 1012.81 1012.84 1012.83 1012.84 1012.87 1012.96 1013.09 1013.27 1013.47 1013.67 1013.86 1014.03 1014.17 1014.29 1014.40 1014.51 1014.64 1014.81 1015.01 1015.24 1015.49 1015.74 1015.96 1016.13 1016.25
1014.08 1013.52 1012.97 1012.45 1011.98 1011.57 1011.24 1011.03 1010.94 1010.99 1011.15 1011.41 1011.72 1012.04 1012.33 1012.56 1012.71 1012.79 1012.79 1012.76 1012.72 1012.71 1012.75 1012.84 1012.99 1013.18 1013.40 1013.61 1013.80 1013.96 1014.08 1014.17 1014.25 1014.32 1014.42 1014.55 1014.73 1014.94 1015.18 1015.43 1015.66 1015.85 1015.98
1014.71 1014.20 1013.71 1013.25 1012.83 1012.47 1012.17 1011.96 1011.86 1011.85 1011.93 1012.09 1012.28 1012.47 1012.63 1012.74 1012.78 1012.76 1012.70 1012.63 1012.58 1012.56 1012.61 1012.72 1012.90 1013.11 1013.34 1013.56 1013.76 1013.90 1014.01 1014.07 1014.11 1014.16 1014.21 1014.31 1014.44 1014.63 1014.85 1015.09 1015.32 1015.51 1015.65
1015.38 1014.89 1014.44 1014.02 1013.64 1013.30 1013.01 1012.78 1012.64 1012.57 1012.56 1012.61 1012.68 1012.75 1012.80 1012.80 1012.76 1012.68 1012.58 1012.49 1012.43 1012.43 1012.49 1012.63 1012.82 1013.05 1013.29 1013.51 1013.70 1013.84 1013.92 1013.96 1013.97 1013.98 1014.00 1014.06 1014.17 1014.32 1014.51 1014.73 1014.95 1015.15 1015.29
1016.01 1015.54 1015.11 1014.71 1014.33 1013.99 1013.69 1013.44 1013.25 1013.11 1013.02 1012.98 1012.95 1012.92 1012.87 1012.80 1012.70 1012.59 1012.47 1012.38 1012.33 1012.35 1012.43 1012.58 1012.78 1013.01 1013.24 1013.45 1013.61 1013.73 1013.79 1013.81 1013.80 1013.78 1013.78 1013.81 1013.89 1014.02 1014.19 1014.39 1014.60 1014.79 1014.95
1016.58 1016.10 1015.67 1015.26 1014.89 1014.54 1014.22 1013.94 1013.70 1013.50 1013.35 1013.23 1013.13 1013.03 1012.93 1012.82 1012.69 1012.56 1012.45 1012.37 1012.34 1012.37 1012.46 1012.61 1012.79 1013.00 1013.20 1013.37 1013.51 1013.59 1013.62 1013.62 1013.59 1013.56 1013.54 1013.56 1013.62 1013.73 1013.89 1014.07 1014.28 1014.47 1014.64
1017.05 1016.56 1016.11 1015.70 1015.31 1014.95 1014.61 1014.31 1014.04 1013.81 1013.62 1013.46 1013.31 1013.18 1013.05 1012.92 1012.79 1012.67 1012.57 1012.50 1012.48 1012.52 1012.60 1012.72 1012.87 1013.03 1013.18 1013.30 1013.38 1013.42 1013.42 1013.39 1013.35 1013.31 1013.30 1013.31 1013.36 1013.47 1013.61 1013.78 1013.98 1014.17 1014.36
1017.42 1016.91 1016.45 1016.03 1015.64 1015.27 1014.93 1014.62 1014.35 1014.11 1013.90 1013.73 1013.57 1013.43 1013.29 1013.16 1013.04 1012.93 1012.85 1012.79 1012.78 1012.80 1012.85 1012.93 1013.03 1013.12 1013.19 1013.24 1013.26 1013.24 1013.21 1013.16 1013.10 1013.07 1013.05 1013.07 1013.13 1013.23 1013.36 1013.52 1013.70 1013.89 1014.08
1017.71 1017.19 1016.73 1016.31 1015.92 1015.56 1015.23 1014.94 1014.68 1014.46 1014.26 1014.10 1013.95 1013.82 1013.69 1013.57 1013.46 1013.36 1013.28 1013.23 1013.20 1013.19 1013.20 1013.22 1013.24 1013.25 1013.24 1013.21 1013.16 1013.09 1013.01 1012.94 1012.88 1012.85 1012.84 1012.87 1012.93 1013.02 1013.14 1013.29 1013.45 1013.62 1013.81
1017.93 1017.42 1016.96 1016.55 1016.18 1015.85 1015.55 1015.29 1015.07 1014.88 1014.71 1014.57 1014.45 1014.33 1014.22 1014.11 1014.01 1013.91 1013.83 1013.76 1013.70 1013.66 1013.62 1013.57 1013.51 1013.44 1013.34 1013.23 1013.11 1012.98 1012.87 1012.78 1012.72 1012.69 1012.69 1012.73 1012.80 1012.88 1012.98 1013.10 1013.23 1013.37 1013.53
1018.09 1017.61 1017.17 1016.79 1016.44 1016.15 1015.89 1015.67 1015.50 1015.35 1015.23 1015.12 1015.02 1014.93 1014.83 1014.73 1014.62 1014.52 1014.43 1014.34 1014.25 1014.16 1014.06 1013.95 1013.82 1013.67 1013.50 1013.32 1013.13 1012.96 1012.82 1012.71 1012.64 1012.62 1012.63 1012.68 1012.74 1012.82 1012.90 1012.98 1013.06 1013.16 1013.28
1018.23 1017.77 1017.36 1017.00 1016.70 1016.44 1016.22 1016.05 1015.92 1015.82 1015.74 1015.66 1015.59 1015.51 1015.42 1015.32 1015.22 1015.11 1015.00 1014.89 1014.77 1014.65 1014.51 1014.35 1014.16 1013.95 1013.72 1013.48 1013.25 1013.04 1012.87 1012.74 1012.67 1012.65 1012.67 1012.72 1012.78 1012.84 1012.90 1012.94 1012.98 1013.02 1013.08
1018.34 1017.91 1017.53 1017.19 1016.91 1016.68 1016.51 1016.38 1016.28 1016.22 1016.17 1016.12 1016.07 1016.00 1015.92 1015.83 1015.73 1015.62 1015.50 1015.38 1015.25 1015.11 1014.95 1014.76 1014.53 1014.28 1014.01 1013.73 1013.46 1013.22 1013.02 1012.88 1012.80 1012.78 1012.80 1012.85 1012.91 1012.96 1013.00 1013.01 1013.00 1012.99 1013.00
1018.43 1018.02 1017.65 1017.33 1017.07 1016.86 1016.70 1016.60 1016.53 1016.49 1016.46 1016.44 1016.40 1016.36 1016.29 1016.21 1016.12 1016.02 1015.91 1015.80 1015.68 1015.54 1015.37 1015.17 1014.93 1014.66 1014.37 1014.06 1013.76 1013.49 1013.27 1013.11 1013.02 1012.99 1013.01 1013.05 1013.11 1013.16 1013.18 1013.17 1013.13 1013.08 1013.04
1018.50 1018.10 1017.73 1017.42 1017.15 1016.95 1016.80 1016.70 1016.64 1016.62 1016.61 1016.60 1016.58 1016.55 1016.51 1016.45 1016.38 1016.31 1016.23 1016.15 1016.05 1015.93 1015.79 1015.60 1015.37 1015.09 1014.78 1014.46 1014.14 1013.84 1013.59 1013.41 1013.29 1013.25 1013.25 1013.30 1013.36 1013.41 1013.43 1013.42 1013.37 1013.30 1013.22
1018.57 1018.16 1017.79 1017.45 1017.18 1016.96 1016.80 1016.69 1016.64 1016.62 1016.61 1016.62 1016.62 1016.62 1016.60 1016.58 1016.55 1016.52 1016.49 1016.45 1016.40 1016.32 1016.21 1016.05 1015.83 1015.56 1015.25 1014.92 1014.57 1014.25 1013.97 1013.75 1013.61 1013.54 1013.53 1013.57 1013.63 1013.69 1013.72 1013.72 1013.68 1013.60 1013.51
1018.64 1018.21 1017.82 1017.47 1017.16 1016.92 1016.74 1016.63 1016.56 1016.53 1016.54 1016.56 1016.58 1016.61 1016.63 1016.65 1016.68 1016.70 1016.72 1016.74 1016.74 1016.71 1016.64 1016.51 1016.32 1016.07 1015.76 1015.41 1015.05 1014.70 1014.38 1014.13 1013.95 1013.85 1013.82 1013.85 1013.91 1013.98 1014.04 1014.06 1014.04 1013.98 1013.89
1018.71 1018.28 1017.86 1017.48 1017.15 1016.89 1016.68 1016.54 1016.46 1016.43 1016.44 1016.48 1016.52 1016.59 1016.65 1016.72 1016.80 1016.87 1016.95 1017.02 1017.08 1017.09 1017.07 1016.98 1016.81 1016.58 1016.28 1015.93 1015.56 1015.19 1014.85 1014.56 1014.35 1014.21 1014.16 1014.17 1014.23 1014.30 1014.38 1014.43 1014.43 1014.40 1014.33
1018.80 1018.35 1017.92 1017.53 1017.18 1016.89 1016.66 1016.50 1016.41 1016.38 1016.39 1016.44 1016.51 1016.60 1016.71 1016.82 1016.94 1017.07 1017.20 1017.32 1017.41 1017.47 1017.48 1017.42 1017.29 1017.08 1016.81 1016.47 1016.10 1015.72 1015.36 1015.06 1014.82 1014.66 1014.58 1014.57 1014.61 1014.69 1014.77 1014.83 1014.86 1014.85 1014.80
Thickness
5768 5774 5778 5782 5785 5788 5790 5790 5787 5784 5780 5774 5767 5762 5759 5759 5758 5756 5754 5752 5750 5748 5746 5744 5741 5739 5737 5736 5737 5735 5732 5731 5733 5730 5727 5729 5729 5732 5728 5726 5725 5723 5720
5756 5762 5768 5774 5778 5781 5784 5786 5786 5782 5779 5773 5768 5763 5759 5755 5753 5751 5748 5747 5746 5744 5742 5740 5737 5736 5734 5733 5732 5730 5728 5727 5727 5724 5720 5717 5720 5720 5724 5722 5718 5719 5715
5741 5749 5756 5763 5769 5773 5778 5781 5783 5780 5776 5770 5764 5759 5752 5748 5744 5742 5742 5742 5742 5741 5739 5738 5736 5735 5734 5731 5730 5728 5724 5721 5721 5722 5717 5710 5708 5716 5719 5719 5716 5713 5711
5730 5736 5742 5749 5757 5765 5772 5775 5777 5775 5771 5765 5758 5752 5744 5738 5737 5737 5736 5737 5736 5736 5734 5734 5733 5733 5732 5730 5728 5728 5724 5719 5715 5714 5714 5715 5713 5706 5706 5709 5711 5710 5706
5720 5725 5731 5737 5745 5753 5760 5765 5767 5765 5761 5756 5751 5745 5737 5732 5730 5729 5728 5730 5732 5732 5731 5730 5729 5729 5728 5727 5725 5724 5721 5718 5714 5712 5710 5707 5706 5705 5702 5700 5701 5701 5701
5710 5714 5720 5726 5731 5738 5745 5750 5751 5751 5750 5746 5741 5737 5729 5723 5719 5718 5718 5720 5723 5724 5726 5725 5725 5724 5724 5723 5722 5719 5716 5714 5712 5709 5707 5703 5700 5699 5698 5694 5694 5693 5696
5698 5703 5707 5712 5716 5720 5726 5732 5735 5734 5734 5733 5729 5726 5720 5715 5711 5709 5709 5710 5713 5716 5718 5718 5719 5719 5718 5717 5716 5713 5711 5709 5705 5704 5702 5700 5698 5697 5694 5690 5688 5686 5689
5687 5691 5695 5698 5701 5705 5710 5715 5717 5718 5718 5718 5718 5716 5712 5708 5703 5702 5701 5703 5707 5710 5712 5712 5713 5712 5711 5710 5708 5707 5704 5703 5700 5698 5695 5692 5692 5691 5688 5686 5683 5678 5678
5675 5680 5684 5687 5689 5691 5696 5700 5701 5703 5704 5705 5705 5704 5702 5699 5696 5695 5694 5697 5700 5703 5706 5706 5706 5705 5704 5703 5702 5699 5698 5696 5694 5691 5690 5688 5686 5685 5684 5682 5680 5674 5671
5664 5669 5672 5675 5677 5680 5683 5686 5688 5690 5692 5693 5693 5693 5691 5689 5687 5686 5686 5689 5694 5697 5699 5701 5701 5699 5698 5696 5695 5693 5690 5689 5687 5685 5685 5684 5683 5681 5680 5677 5675 5673 5670
5653 5658 5662 5664 5667 5670 5673 5675 5676 5678 5680 5682 5682 5681 5680 5679 5678 5679 5683 5687 5691 5693 5695 5695 5696 5696 5693 5691 5688 5687 5684 5683 5682 5682 5681 5680 5679 5678 5676 5674 5671 5669 5668
5643 5648 5652 5656 5658 5661 5665 5666 5667 5669 5671 5673 5673 5673 5672 5673 5674 5677 5682 5686 5687 5690 5692 5692 5691 5690 5688 5686 5684 5681 5679 5679 5677 5677 5677 5676 5676 5674 5673 5671 5669 5668 5667
5635 5639 5644 5647 5651 5654 5658 5660 5662 5664 5666 5667 5668 5668 5669 5671 5674 5677 5681 5683 5685 5686 5687 5688 5686 5685 5682 5681 5680 5678 5677 5675 5674 5673 5673 5673 5673 5671 5671 5669 5668 5667 5666
5630 5634 5638 5641 5645 5649 5652 5655 5657 5660 5663 5665 5666 5667 5669 5671 5674 5676 5678 5680 5682 5681 5683 5683 5682 5680 5679 5677 5676 5675 5673 5671 5671 5669 5669 5669 5669 5669 5668 5667 5666 5665 5664
5629 5632 5635 5639 5643 5646 5650 5653 5655 5659 5661 5663 5664 5665 5668 5670 5671 5672 5674 5675 5676 5677 5677 5677 5677 5676 5674 5673 5672 5670 5668 5667 5666 5665 5665 5664 5663 5661 5662 5663 5663 5662 5661
5628 5631 5635 5639 5642 5646 5649 5651 5654 5657 5659 5660 5660 5662 5664 5665 5666 5667 5668 5668 5668 5669 5670 5670 5669 5668 5668 5665 5661 5661 5663 5663 5662 5661 5661 5659 5656 5655 5653 5654 5655 5656 5658
5629 5632 5636 5639 5642 5645 5648 5649 5652 5654 5656 5656 5657 5658 5659 5659 5660 5660 5660 5659 5660 5660 5660 5660 5660 5660 5658 5654 5653 5652 5655 5657 5657 5657 5656 5654 5654 5651 5655 5652 5650 5652 5652
5632 5636 5640 5641 5645 5647 5649 5650 5651 5652 5652 5652 5653 5653 5653 5653 5653 5653 5652 5652 5653 5650 5649 5648 5649 5648 5646 5645 5646 5646 5649 5651 5651 5651 5652 5651 5651 5649 5651 5652 5653 5654 5654
5636 5640 5642 5645 5647 5647 5648 5651 5650 5649 5648 5647 5647 5647 5647 5646 5646 5645 5644 5643 5642 5640 5638 5636 5636 5636 5636 5635 5638 5639 5646 5645 5645 5645 5646 5646 5647 5642 5640 5643 5649 5650 5650
5640 5642 5645 5647 5648 5647 5648 5649 5647 5646 5643 5642 5642 5642 5641 5639 5638 5637 5636 5634 5633 5630 5629 5626 5625 5625 5626 5625 5628 5630 5637 5637 5638 5638 5640 5635 5636 5634 5633 5638 5643 5643 5645
5642 5644 5647 5647 5647 5647 5648 5647 5646 5643 5641 5639 5638 5637 5636 5634 5631 5630 5629 5627 5625 5623 5621 5619 5617 5616 5615 5616 5617 5619 5625 5627 5629 5630 5631 5632 5628 5627 5628 5631 5637 5637 5638
5644 5645 5646 5647 5648 5648 5648 5646 5642 5641 5639 5637 5635 5634 5632 5630 5628 5624 5621 5619 5617 5616 5614 5612 5610 5609 5609 5607 5608 5609 5612 5614 5619 5620 5622 5623 5621 5622 5624 5628 5629 5629 5630
5645 5646 5647 5648 5650 5651 5648 5646 5643 5642 5640 5638 5635 5633 5631 5627 5623 5619 5616 5612 5610 5608 5605 5603 5601 5601 5602 5602 5601 5602 5602 5604 5607 5609 5608 5611 5614 5617 5621 5622 5623 5625 5628
5647 5647 5649 5651 5652 5653 5652 5650 5648 5645 5644 5641 5638 5636 5633 5629 5623 5616 5612 5607 5603 5600 5598 5595 5594 5594 5595 5595 5595 5597 5598 5597 5599 5600 5600 5602 5606 5611 5613 5617 5620 5623 5624
5650 5650 5651 5651 5653 5656 5656 5655 5653 5651 5648 5645 5641 5638 5634 5629 5623 5616 5608 5603 5598 5592 5590 5590 5589 5588 5588 5586 5585 5588 5590 5591 5592 5593 5595 5599 5602 5605 5609 5612 5615 5617 5619
5652 5653 5654 5654 5657 5660 5660 5659 5656 5654 5653 5649 5644 5640 5636 5630 5626 5621 5612 5600 5596 5591 5588 5586 5585 5586 5582 5581 5581 5582 5582 5583 5585 5588 5590 5592 5595 5598 5602 5605 5608 5611 5612